<- Previous Day | Today | Next Day ->

All Data for 03 April 2024

 

Time A - D Temp A - D Dew Point A - D Humidity A - D Pressure A - D Wind A - D Wind Dir Gust A - D Rain Rate A - D Rain Total
00:00 10.1 10.1 100 996.6 16.8 SSW 21.3 0.0 0.0
00:01 10.1 10.1 100 996.6 19.7 S 21.3 0.0 0.0
00:02 10.1 10.1 100 996.7 22.8 SW 22.8 0.0 0.0
00:03 10.1 10.1 100 996.4 22.8 SSW 22.8 0.0 0.0
00:04 10.0 10.0 100 996.5 24.4 SW 24.4 0.0 0.0
00:05 10.0 10.0 100 996.6 26.6 S 26.6 0.0 0.0
00:06 10.0 10.0 100 996.5 17.4 SSW 26.6 0.0 0.0
00:08 10.0 10.0 100 996.3 19.7 SW 26.6 0.0 0.0
00:09 10.0 10.0 100 996.5 18.3 SSW 26.6 0.0 0.0
00:10 10.0 10.0 100 996.5 20.6 W 26.6 0.0 0.0
00:11 10.0 10.0 100 996.5 16.8 S 26.6 0.0 0.0
00:12 10.0 10.0 100 996.6 22.8 SSW 26.6 0.0 0.0
00:13 10.0 10.0 100 996.6 22.8 S 26.6 0.0 0.0
00:14 10.0 10.0 100 996.4 22.1 S 26.6 0.0 0.0
00:15 10.0 10.0 100 996.5 17.4 S 26.6 0.0 0.0
00:16 10.0 10.0 100 996.6 26.6 SE 26.6 0.0 0.0
00:17 10.0 10.0 100 996.5 20.6 SSW 26.6 0.0 0.0
00:18 10.0 10.0 100 996.2 21.3 SW 26.6 0.0 0.0
00:19 10.0 10.0 100 996.4 16.8 SE 26.6 0.0 0.0
00:20 10.0 10.0 100 996.4 17.4 S 26.6 0.0 0.0
00:21 10.0 10.0 100 996.4 19.0 S 26.6 0.0 0.0
00:22 10.0 10.0 100 996.4 29.8 SW 29.8 0.0 0.0
00:23 9.9 9.9 100 996.5 29.8 SSW 29.8 0.0 0.0
00:24 9.9 9.9 100 996.3 21.3 SW 29.8 0.0 0.0
00:26 9.9 9.9 100 996.5 18.3 SSW 29.8 0.0 0.0
00:27 9.9 9.9 100 996.5 17.4 SW 29.8 0.0 0.0
00:28 9.9 9.9 100 996.6 22.8 S 29.8 0.0 0.0
00:29 9.9 9.9 100 996.3 22.8 SW 29.8 0.0 0.0
00:30 9.9 9.9 100 996.3 15.2 SSW 29.8 0.0 0.0
00:31 9.9 9.9 100 996.5 22.1 SW 29.8 0.0 0.0
00:32 9.9 9.9 100 996.4 14.5 S 29.8 0.0 0.0
00:33 9.9 9.9 100 996.5 17.4 S 29.8 0.0 0.0
00:34 9.9 9.9 100 996.4 16.8 SW 22.8 0.0 0.0
00:35 9.9 9.9 100 996.2 16.8 SW 22.8 0.0 0.0
00:36 9.8 9.8 100 996.3 15.2 SW 22.8 0.0 0.0
00:37 9.8 9.8 100 996.5 15.2 S 22.8 0.0 0.0
00:38 9.8 9.8 100 996.4 15.2 SW 22.8 0.0 0.0
00:39 9.8 9.8 100 996.3 18.3 SSW 22.1 0.0 0.0
00:41 9.8 9.8 100 996.4 21.3 SSW 21.3 0.0 0.0
00:42 9.8 9.8 100 996.4 21.3 SW 21.3 0.0 0.0
00:43 9.8 9.8 100 996.5 25.1 SW 25.1 0.0 0.1
00:44 9.8 9.8 100 996.2 22.8 SW 25.1 0.8 0.1
00:45 9.8 9.8 100 996.4 17.4 SW 25.1 0.8 0.1
00:46 9.8 9.8 100 996.4 19.7 S 25.1 0.8 0.1
00:47 9.8 9.8 100 996.4 19.7 S 25.1 0.8 0.1
00:48 9.8 9.8 100 996.4 18.3 SW 25.1 0.8 0.1
00:49 9.8 9.8 100 996.2 16.8 SSW 25.1 0.0 0.1
00:50 9.8 9.8 100 996.1 17.4 SW 25.1 0.0 0.1
00:51 9.8 9.8 100 996.4 20.6 SE 25.1 0.0 0.1
00:52 9.8 9.8 100 996.3 22.8 SW 25.1 0.0 0.1
00:53 9.8 9.8 100 996.3 22.8 S 22.8 0.0 0.1
00:54 9.7 9.7 100 996.4 19.0 SW 22.8 0.0 0.1
00:56 9.7 9.7 100 996.2 19.7 SW 22.8 0.0 0.1
00:57 9.7 9.7 100 996.4 18.3 SW 22.8 0.0 0.1
00:58 9.7 9.7 100 996.5 19.0 S 22.8 0.0 0.1
00:59 9.7 9.7 100 996.3 19.0 W 22.8 0.0 0.1
01:00 9.7 9.7 100 996.3 22.1 SW 22.8 0.0 0.1
01:01 9.7 9.7 100 996.4 22.1 SW 22.8 0.0 0.1
01:02 9.7 9.7 100 996.4 22.1 SW 22.8 0.0 0.1
01:03 9.7 9.7 100 996.3 22.1 SW 22.8 0.0 0.1
01:04 9.7 9.7 100 996.2 22.1 SW 22.1 0.0 0.1
01:05 9.7 9.7 100 996.3 22.1 SW 22.1 0.0 0.1
01:06 9.7 9.7 100 996.4 19.7 SSW 22.1 0.0 0.1
01:07 9.7 9.7 100 996.3 23.5 S 23.5 0.0 0.1
01:08 9.7 9.7 100 996.2 24.4 S 24.4 0.0 0.1
01:09 9.6 9.6 100 996.3 19.7 SW 24.4 0.0 0.1
01:10 9.6 9.6 100 996.4 17.4 SW 24.4 0.0 0.1
01:11 9.6 9.6 100 996.4 17.4 S 24.4 0.0 0.1
01:13 9.6 9.6 100 996.3 19.0 S 24.4 0.0 0.1
01:14 9.6 9.6 100 996.3 20.6 SW 24.4 0.0 0.1
01:15 9.6 9.6 100 996.3 21.3 S 24.4 0.0 0.1
01:16 9.6 9.6 100 996.2 22.1 S 24.4 0.0 0.1
01:17 9.6 9.6 100 996.4 22.1 SE 24.4 0.0 0.1
01:18 9.6 9.6 100 996.4 19.7 SSE 24.4 0.0 0.1
01:19 9.6 9.6 100 996.3 22.8 S 22.8 0.0 0.1
01:20 9.6 9.6 100 996.3 22.8 S 22.8 0.0 0.1
01:21 9.6 9.6 100 996.3 19.0 S 22.8 0.0 0.1
01:22 9.5 9.5 100 996.2 25.9 S 25.9 0.0 0.1
01:23 9.5 9.5 100 996.3 19.0 S 25.9 0.0 0.1
01:24 9.5 9.5 100 996.0 23.5 SW 25.9 0.0 0.1
01:25 9.5 9.5 100 996.1 19.0 SW 25.9 0.0 0.1
01:27 9.5 9.5 100 996.0 19.7 SW 25.9 0.0 0.1
01:28 9.5 9.5 100 996.1 25.9 S 25.9 0.0 0.1
01:29 9.5 9.5 100 996.4 19.0 SE 25.9 0.0 0.1
01:30 9.5 9.5 100 996.1 18.3 W 25.9 0.0 0.1
01:31 9.5 9.5 100 996.2 19.0 S 25.9 0.8 0.1
01:32 9.5 9.5 100 996.2 19.0 SW 25.9 0.8 0.1
01:33 9.5 9.5 100 996.2 18.3 S 25.9 0.8 0.1
01:34 9.5 9.5 100 996.0 19.7 SSW 25.9 0.8 0.1
01:35 9.5 9.5 100 996.2 19.7 SW 25.9 0.8 0.1
01:36 9.5 9.5 100 996.4 19.7 SW 25.9 0.0 0.1
01:37 9.5 9.5 100 996.0 15.2 S 25.9 0.0 0.1
01:38 9.5 9.5 100 996.1 22.1 SW 25.9 0.0 0.1
01:39 9.5 9.5 100 996.2 19.0 S 22.1 0.0 0.1
01:40 9.5 9.5 100 996.3 19.7 SW 22.1 0.0 0.1
01:41 9.5 9.5 100 996.2 24.4 SSW 24.4 0.0 0.1
01:43 9.5 9.5 100 996.1 22.8 S 26.6 0.0 0.1
01:44 9.4 9.4 100 996.1 23.5 S 26.6 0.0 0.1
01:45 9.4 9.4 100 996.2 23.5 S 26.6 0.0 0.1
01:46 9.4 9.4 100 996.3 21.3 S 26.6 0.0 0.1
01:47 9.4 9.4 100 996.3 19.0 S 26.6 0.0 0.1
01:48 9.4 9.4 100 996.2 24.4 SW 26.6 0.0 0.1
01:49 9.4 9.4 100 996.2 24.4 S 26.6 0.0 0.1
01:50 9.4 9.4 100 996.3 21.3 NW 26.6 0.0 0.1
01:51 9.4 9.4 100 996.3 23.5 SE 26.6 0.0 0.1
01:52 9.4 9.4 100 996.3 30.4 SW 30.4 0.0 0.1
01:53 9.4 9.4 100 996.2 19.0 S 30.4 0.0 0.1
01:54 9.4 9.4 100 996.3 17.4 SW 30.4 0.0 0.1
01:55 9.4 9.4 100 996.2 22.8 S 30.4 0.0 0.1
01:56 9.4 9.4 100 996.0 22.1 SW 30.4 0.0 0.1
01:57 9.4 9.4 100 996.3 17.4 SW 30.4 0.0 0.1
01:58 9.4 9.4 100 996.3 17.4 S 30.4 0.0 0.1
01:59 9.4 9.4 100 996.4 22.8 SW 30.4 0.0 0.1
02:00 9.4 9.4 100 996.2 16.8 SW 30.4 0.0 0.1
02:02 9.4 9.4 100 996.2 25.1 SW 25.1 0.8 0.2
02:03 9.4 9.4 100 996.5 24.4 S 25.1 0.8 0.2
02:04 9.4 9.4 100 996.2 20.6 S 25.1 0.8 0.2
02:05 9.4 9.4 100 996.2 20.6 S 25.1 0.8 0.2
02:06 9.4 9.4 100 996.2 19.0 SW 25.1 0.8 0.2
02:07 9.4 9.4 100 996.1 18.3 S 25.1 0.0 0.2
02:08 9.4 9.4 100 996.3 20.6 SW 25.1 0.0 0.2
02:09 9.4 9.4 100 996.4 21.3 SSE 25.1 0.0 0.2
02:10 9.4 9.4 100 996.4 19.0 SSE 25.1 0.0 0.2
02:11 9.4 9.4 100 996.3 19.0 S 25.1 0.0 0.2
02:12 9.4 9.4 100 996.4 23.5 SW 25.1 0.0 0.2
02:13 9.4 9.4 100 996.1 15.9 SSW 24.4 0.0 0.2
02:14 9.4 9.4 100 996.1 19.7 SW 24.4 0.0 0.2
02:15 9.4 9.4 100 996.4 25.1 S 25.1 0.0 0.2
02:16 9.4 9.4 100 996.3 20.6 SSE 25.1 0.0 0.2
02:18 9.4 9.4 100 996.1 23.5 SW 25.1 0.0 0.2
02:19 9.4 9.4 100 996.0 22.1 S 25.1 0.0 0.2
02:20 9.4 9.4 100 996.4 22.8 S 25.1 0.0 0.2
02:21 9.4 9.4 100 996.4 22.8 S 25.1 0.0 0.2
02:22 9.4 9.4 100 996.2 25.1 SSW 25.1 0.0 0.2
02:23 9.4 9.4 100 995.9 24.4 SW 25.1 0.0 0.2
02:24 9.4 9.4 100 996.1 26.6 SW 26.6 0.0 0.2
02:25 9.4 9.4 100 996.0 18.3 SW 26.6 0.0 0.2
02:26 9.4 9.4 100 996.2 19.7 SSW 26.6 0.0 0.2
02:27 9.4 9.4 100 996.2 24.4 SW 26.6 0.0 0.2
02:28 9.4 9.4 100 996.0 24.4 S 26.6 0.0 0.2
02:29 9.4 9.4 100 996.1 21.3 S 26.6 0.0 0.2
02:30 9.4 9.4 100 996.0 18.3 SW 26.6 0.0 0.2
02:31 9.4 9.4 100 996.1 18.3 SW 26.6 0.0 0.2
02:32 9.4 9.4 100 996.1 17.4 SSW 26.6 0.0 0.2
02:34 9.4 9.4 100 996.0 13.6 SW 24.4 0.0 0.2
02:35 9.4 9.4 100 996.0 19.0 SW 24.4 0.0 0.2
02:36 9.4 9.4 100 996.2 15.2 SW 24.4 0.0 0.2
02:37 9.5 9.5 100 995.9 17.4 SW 24.4 0.0 0.2
02:38 9.5 9.5 100 996.1 20.6 S 24.4 0.0 0.2
02:39 9.5 9.5 100 996.1 20.6 WSW 22.1 0.0 0.2
02:40 9.5 9.5 100 996.1 18.3 SW 22.1 0.0 0.2
02:41 9.5 9.5 100 996.1 16.8 SW 22.1 0.0 0.2
02:42 9.5 9.5 100 996.2 16.8 S 22.1 0.0 0.2
02:43 9.5 9.5 100 996.1 19.7 SW 20.6 0.0 0.2
02:44 9.5 9.5 100 995.9 19.7 S 20.6 0.0 0.2
02:45 9.5 9.5 100 996.0 16.8 S 20.6 0.0 0.2
02:46 9.5 9.5 100 996.0 14.5 SSW 20.6 0.0 0.2
02:47 9.6 9.6 100 996.1 19.7 S 20.6 0.0 0.2
02:48 9.6 9.6 100 996.0 18.3 SW 20.6 0.0 0.2
02:49 9.6 9.6 100 995.9 16.8 SW 19.7 0.0 0.2
02:51 9.6 9.6 100 996.0 17.4 SW 19.7 0.0 0.3
02:52 9.6 9.6 100 996.0 20.6 S 21.3 0.8 0.3
02:53 9.6 9.6 100 996.0 19.7 SW 21.3 0.8 0.3
02:54 9.6 9.6 100 995.9 15.9 S 21.3 0.8 0.3
02:55 9.6 9.6 100 996.1 25.1 SSW 25.1 0.8 0.3
02:56 9.6 9.6 100 996.0 17.4 S 25.1 0.8 0.3
02:57 9.7 9.7 100 996.2 22.8 S 25.1 0.0 0.3
02:58 9.7 9.7 100 996.1 19.0 SW 25.1 0.0 0.3
02:59 9.7 9.7 100 996.1 19.0 SW 25.1 0.8 0.3
03:00 9.7 9.7 100 995.9 16.8 SW 25.1 0.8 0.3
03:01 9.7 9.7 100 996.0 16.8 SW 25.1 0.8 0.3
03:02 9.7 9.7 100 996.0 16.8 SW 25.1 0.8 0.3
03:03 9.7 9.7 100 995.8 16.8 SW 25.1 0.8 0.3
03:04 9.7 9.7 100 995.8 16.8 SW 25.1 0.0 0.3
03:05 9.7 9.7 100 995.7 16.8 SW 22.8 0.0 0.3
03:06 9.8 9.8 100 995.8 16.8 SW 22.8 0.0 0.3
03:08 9.8 9.8 100 996.1 19.0 SW 20.6 0.0 0.3
03:09 9.8 9.8 100 995.9 19.0 SW 19.0 0.0 0.3
03:10 9.8 9.8 100 996.0 15.9 S 19.0 0.0 0.3
03:11 9.8 9.8 100 995.8 20.6 S 20.6 0.0 0.3
03:12 9.8 9.8 100 995.7 15.9 SW 20.6 0.0 0.3
03:13 9.8 9.8 100 995.7 19.7 SW 20.6 0.0 0.3
03:14 9.9 9.9 100 996.0 15.9 SSW 20.6 0.0 0.3
03:15 9.9 9.9 100 996.0 13.0 SW 20.6 0.0 0.3
03:16 9.9 9.9 100 996.0 20.6 S 20.6 0.0 0.3
03:17 9.9 9.9 100 995.9 15.9 SW 20.6 0.0 0.3
03:18 9.9 9.9 100 995.9 22.8 SW 22.8 0.0 0.3
03:19 9.9 9.9 100 995.9 18.3 SW 22.8 0.0 0.3
03:20 9.9 9.9 100 995.9 15.9 SW 22.8 0.0 0.3
03:21 9.9 9.9 100 995.8 20.6 SW 22.8 0.0 0.3
03:22 9.9 9.9 100 996.0 20.6 SW 22.8 0.0 0.3
03:24 10.0 10.0 100 996.0 17.4 SW 22.8 0.0 0.3
03:25 10.0 10.0 100 995.7 13.6 SW 22.8 0.0 0.3
03:26 10.0 10.0 100 995.9 21.3 SW 22.8 0.0 0.3
03:27 10.0 10.0 100 995.7 17.4 WSW 22.8 0.0 0.3
03:28 10.0 10.0 100 995.9 17.4 SW 22.8 0.0 0.3
03:29 10.0 10.0 100 995.9 13.0 WSW 21.3 0.0 0.3
03:30 10.0 10.0 100 995.9 15.9 WSW 21.3 0.0 0.3
03:31 10.0 10.0 100 995.9 16.8 SW 21.3 0.0 0.3
03:32 10.0 10.0 100 995.7 15.2 SW 21.3 0.0 0.3
03:33 10.0 10.0 100 995.8 16.8 SW 21.3 0.0 0.3
03:34 10.0 10.0 100 996.1 15.9 SSE 21.3 0.0 0.3
03:35 10.0 10.0 100 995.9 15.9 SSE 21.3 0.0 0.3
03:36 10.0 10.0 100 995.7 20.6 SW 21.3 0.0 0.4
03:37 10.0 10.0 100 996.0 20.6 S 20.6 0.8 0.4
03:39 10.1 10.1 100 995.9 17.4 SW 20.6 0.8 0.4
03:40 10.1 10.1 100 996.0 15.9 SW 20.6 0.8 0.4
03:41 10.1 10.1 100 996.0 11.4 WSW 20.6 0.8 0.4
03:42 10.1 10.1 100 996.2 11.4 SW 20.6 0.0 0.4
03:43 10.1 10.1 100 996.0 18.3 SW 20.6 0.0 0.4
03:44 10.1 10.1 100 996.1 18.3 SW 20.6 0.0 0.4
03:45 10.1 10.1 100 995.8 16.8 SW 20.6 0.0 0.4
03:46 10.1 10.1 100 996.0 19.7 SW 20.6 0.0 0.4
03:47 10.1 10.1 100 996.1 19.7 SW 20.6 0.0 0.4
03:48 10.1 10.1 100 996.1 18.3 SW 19.7 0.0 0.4
03:49 10.1 10.1 100 996.0 18.3 WSW 19.7 0.0 0.4
03:50 10.1 10.1 100 996.0 16.8 SW 19.7 0.0 0.4
03:51 10.1 10.1 100 996.0 17.4 SW 19.7 0.0 0.4
03:52 10.1 10.1 100 996.2 15.2 SW 19.7 0.0 0.4
03:53 10.1 10.1 100 996.1 15.9 SW 19.7 0.0 0.4
03:54 10.1 10.1 100 996.1 16.8 SW 19.7 0.0 0.4
03:55 10.1 10.1 100 996.2 14.5 S 19.7 0.0 0.4
03:56 10.1 10.1 100 996.0 17.4 S 19.7 0.0 0.4
03:58 10.1 10.1 100 996.1 13.6 S 19.0 0.0 0.4
03:59 10.1 10.1 100 996.3 13.6 SW 19.0 0.0 0.4
04:00 10.1 10.1 100 996.2 13.6 SSW 17.4 0.0 0.4
04:01 10.1 10.1 100 996.2 13.6 SSW 17.4 0.0 0.4
04:02 10.1 10.1 100 996.0 15.9 SSW 17.4 0.0 0.4
04:03 10.1 10.1 100 996.1 15.2 SW 17.4 0.0 0.4
04:04 10.1 10.1 100 996.0 15.2 SW 17.4 0.0 0.4
04:05 10.1 10.1 100 995.9 13.6 S 17.4 0.0 0.4
04:06 10.1 10.1 100 996.0 17.4 SW 18.3 0.0 0.4
04:07 10.1 10.1 100 996.0 17.4 W 18.3 0.0 0.4
04:08 10.1 10.1 100 996.1 15.2 SSW 18.3 0.0 0.4
04:09 10.1 10.1 100 996.1 15.2 SW 18.3 0.0 0.4
04:10 10.1 10.1 100 996.0 11.4 WSW 18.3 0.0 0.4
04:11 10.1 10.1 100 996.2 9.8 W 18.3 0.0 0.4
04:12 10.1 10.1 100 996.0 13.6 SW 18.3 0.0 0.4
04:13 10.1 10.1 100 996.2 13.6 SW 18.3 0.0 0.4
04:14 10.1 10.1 100 996.2 12.1 SE 18.3 0.0 0.4
04:16 10.1 10.1 100 996.3 13.0 SW 17.4 0.0 0.4
04:17 10.1 10.1 100 996.2 9.8 SW 15.2 0.0 0.4
04:18 10.1 10.1 100 996.3 11.4 SW 15.2 0.0 0.4
04:19 10.1 10.1 100 996.3 11.4 WSW 14.5 0.0 0.4
04:20 10.1 10.1 100 996.2 13.0 SW 14.5 0.0 0.4
04:21 10.1 10.1 100 996.2 19.0 SW 19.0 0.0 0.4
04:22 10.2 10.2 100 996.2 13.6 WSW 19.0 0.0 0.4
04:23 10.2 10.2 100 996.5 14.5 W 19.0 0.0 0.4
04:24 10.2 10.2 100 996.2 17.4 SW 19.0 0.8 0.4
04:25 10.2 10.2 100 996.3 13.6 W 19.0 0.8 0.4
04:26 10.1 10.1 100 996.5 20.6 WSW 20.6 0.8 0.4
04:27 10.1 10.1 100 996.6 16.8 W 20.6 0.8 0.4
04:28 10.1 10.1 100 996.5 18.3 NW 25.9 0.8 0.4
04:29 10.1 10.1 100 996.4 24.4 W 25.9 0.0 0.4
04:30 10.0 10.0 100 996.4 24.4 SW 25.9 0.0 0.4
04:32 9.9 9.9 100 996.6 18.3 SW 25.9 0.0 0.4
04:33 9.9 9.9 100 996.7 19.7 W 25.9 0.0 0.4
04:34 9.8 9.8 100 996.8 15.9 WSW 25.9 0.0 0.4
04:35 9.8 9.8 100 996.7 15.9 SW 25.9 0.0 0.4
04:36 9.8 9.8 100 996.7 15.9 SW 25.9 0.0 0.4
04:37 9.7 9.7 100 996.7 18.3 SW 25.9 0.0 0.4
04:38 9.7 9.7 100 996.8 13.6 W 25.9 0.0 0.4
04:39 9.7 9.7 100 996.7 13.0 SW 24.4 0.0 0.4
04:40 9.7 9.7 100 996.7 20.6 SW 24.4 0.0 0.4
04:41 9.6 9.6 100 996.7 20.6 SW 21.3 0.0 0.4
04:42 9.6 9.6 100 996.8 16.8 SSW 21.3 0.0 0.4
04:43 9.6 9.6 100 996.9 16.8 W 20.6 0.0 0.4
04:44 9.6 9.6 100 996.8 14.5 SW 20.6 0.0 0.4
04:45 9.6 9.6 100 996.9 15.9 SW 20.6 0.0 0.4
04:46 9.6 9.6 100 996.9 18.3 SW 20.6 0.0 0.4
04:47 9.5 9.5 100 997.1 16.8 W 20.6 0.0 0.4
04:48 9.5 9.5 100 997.0 16.8 SW 20.6 0.0 0.4
04:49 9.5 9.5 100 997.0 22.1 SW 22.1 0.0 0.4
04:51 9.4 9.4 100 997.2 19.0 WSW 22.1 0.0 0.4
04:52 9.4 9.4 100 997.0 16.8 SW 22.1 0.0 0.4
04:53 9.4 9.4 100 997.0 17.4 SW 22.1 0.0 0.4
04:54 9.4 9.4 100 997.0 17.4 W 22.1 0.0 0.4
04:55 9.3 9.3 100 997.0 16.8 SW 22.1 0.0 0.4
04:56 9.3 9.3 100 997.1 22.1 WSW 22.1 0.0 0.4
04:57 9.3 9.3 100 997.0 22.8 SW 22.8 0.0 0.4
04:58 9.3 9.3 100 997.1 21.3 W 22.8 0.0 0.4
04:59 9.3 9.3 100 997.1 21.3 W 22.8 0.0 0.4
05:00 9.2 9.2 100 997.1 16.8 WSW 22.8 0.0 0.4
05:01 9.2 9.2 100 997.4 16.8 WSW 22.8 0.0 0.4
05:02 9.2 9.2 100 997.2 16.8 WSW 22.8 0.0 0.4
05:03 9.2 9.2 100 997.4 16.8 WSW 22.8 0.0 0.4
05:04 9.2 9.2 100 997.3 16.8 WSW 22.8 0.0 0.4
05:05 9.2 9.2 100 997.3 16.8 WSW 22.8 0.0 0.4
05:06 9.1 9.1 100 997.3 15.2 W 22.8 0.0 0.4
05:07 9.1 9.1 100 997.3 15.2 WSW 22.8 0.0 0.4
05:09 9.1 9.1 100 997.3 18.3 SW 20.6 0.0 0.4
05:10 9.1 9.1 100 997.5 18.3 SW 20.6 0.0 0.4
05:11 9.1 9.1 100 997.5 18.3 WSW 20.6 0.0 0.4
05:12 9.1 9.1 100 997.3 20.6 W 20.6 0.0 0.4
05:13 9.1 9.1 100 997.3 20.6 W 20.6 0.0 0.4
05:14 9.0 9.0 100 997.6 12.1 NW 20.6 0.0 0.4
05:15 9.0 9.0 100 997.7 15.9 SW 20.6 0.0 0.4
05:16 9.0 9.0 100 997.4 19.7 SW 20.6 0.0 0.4
05:17 9.0 9.0 100 997.4 14.5 W 20.6 0.0 0.4
05:18 9.0 9.0 100 997.5 19.0 W 20.6 0.0 0.4
05:19 9.0 9.0 100 997.7 15.2 W 20.6 0.0 0.4
05:20 9.0 9.0 100 997.4 15.9 NW 20.6 0.0 0.4
05:21 9.0 9.0 100 997.8 18.3 SW 20.6 0.0 0.4
05:22 9.0 9.0 100 997.6 11.4 W 20.6 0.0 0.4
05:23 9.0 9.0 100 997.5 13.0 SSW 20.6 0.0 0.4
05:24 9.0 9.0 100 997.8 18.3 SW 19.7 0.0 0.4
05:25 9.0 9.0 100 997.6 15.9 W 19.7 0.0 0.4
05:26 8.9 8.9 100 997.7 16.8 SSW 19.0 0.0 0.4
05:28 8.9 8.9 100 997.7 15.2 SW 19.0 0.0 0.4
05:29 8.9 8.9 100 997.7 15.9 W 18.3 0.0 0.4
05:30 8.9 8.9 100 997.6 15.9 W 18.3 0.0 0.4
05:31 8.9 8.9 100 998.0 18.3 S 18.3 0.0 0.4
05:32 8.9 8.9 100 997.9 19.0 SW 19.0 0.0 0.4
05:33 8.9 8.9 100 997.9 19.0 SW 19.0 0.0 0.4
05:34 8.9 8.9 100 998.0 12.1 W 19.0 0.0 0.4
05:35 8.9 8.9 100 998.0 14.5 SW 19.0 0.0 0.4
05:36 8.9 8.9 100 997.8 14.5 SW 19.0 0.0 0.4
05:37 8.9 8.9 100 997.8 15.9 W 19.0 0.0 0.4
05:38 8.9 8.9 100 997.9 19.7 SW 19.7 0.0 0.4
05:39 8.9 8.9 100 998.0 19.7 SW 19.7 0.0 0.4
05:40 8.9 8.9 100 998.0 16.8 WNW 19.7 0.0 0.4
05:41 8.9 8.9 100 998.1 13.0 WSW 19.7 0.0 0.4
05:42 8.9 8.9 100 998.2 13.0 WSW 19.7 0.0 0.4
05:44 8.9 8.9 100 998.0 19.0 SW 19.7 0.0 0.4
05:45 8.9 8.9 100 998.0 19.0 W 19.7 0.0 0.4
05:46 8.9 8.9 100 998.1 18.3 W 19.7 0.0 0.4
05:47 8.9 8.9 100 998.1 22.8 W 22.8 0.0 0.4
05:48 8.9 8.9 100 998.3 22.8 W 22.8 0.0 0.4
05:49 8.9 8.9 100 998.2 18.3 SW 22.8 0.0 0.4
05:50 8.9 8.9 100 998.1 15.2 W 22.8 0.0 0.4
05:51 8.9 8.9 100 998.2 15.9 SW 22.8 0.0 0.4
05:52 8.9 8.9 100 998.3 15.9 SW 22.8 0.0 0.4
05:53 8.9 8.9 100 998.2 13.6 SW 22.8 0.0 0.4
05:54 8.9 8.9 100 998.4 16.8 WNW 22.8 0.0 0.4
05:55 8.9 8.9 100 998.5 16.8 NW 22.8 0.0 0.4
05:56 8.9 8.9 100 998.5 13.6 SW 22.8 0.0 0.4
05:57 8.9 8.9 100 998.3 13.0 SW 22.8 0.0 0.4
05:58 8.9 8.9 100 998.3 17.4 SW 18.3 0.0 0.4
05:59 8.9 8.9 100 998.3 17.4 SW 17.4 0.0 0.4
06:00 8.9 8.9 100 998.3 15.9 WNW 17.4 0.0 0.4
06:01 8.9 8.9 100 998.6 19.0 WSW 19.0 0.0 0.4
06:03 8.9 8.9 100 998.5 17.4 W 19.0 0.0 0.4
06:04 8.9 8.9 100 998.5 10.7 SW 19.0 0.0 0.4
06:05 8.9 8.9 100 998.8 19.7 SW 19.7 0.0 0.4
06:06 8.9 8.9 100 998.7 19.7 SW 19.7 0.0 0.4
06:07 8.9 8.9 100 998.7 20.6 WSW 20.6 0.0 0.4
06:08 8.9 8.9 100 998.7 18.3 W 20.6 0.0 0.4
06:09 8.9 8.9 100 998.8 17.4 SW 20.6 0.0 0.4
06:10 8.9 8.9 100 998.8 18.3 W 20.6 0.0 0.4
06:11 8.9 8.9 100 998.7 18.3 SW 20.6 0.0 0.4
06:12 8.9 8.9 100 998.9 20.6 SW 20.6 0.0 0.4
06:13 8.9 8.9 100 998.9 20.6 NW 20.6 0.0 0.4
06:14 8.9 8.9 100 999.0 14.5 SW 20.6 0.0 0.4
06:15 8.9 8.9 100 998.8 15.2 W 20.6 0.0 0.4
06:16 8.9 8.9 100 998.8 13.6 W 20.6 0.0 0.4
06:17 8.9 8.9 100 999.0 17.4 SW 20.6 0.0 0.4
06:18 8.9 8.9 100 999.0 15.2 W 20.6 0.0 0.4
06:20 8.9 8.9 100 998.9 18.3 SW 20.6 0.0 0.4
06:21 8.9 8.9 100 999.1 17.4 SW 20.6 0.0 0.4
06:22 8.9 8.9 100 998.9 18.3 W 20.6 0.0 0.4
06:23 8.9 8.9 100 999.1 19.7 SW 19.7 0.0 0.4
06:24 8.9 8.9 100 998.9 19.0 WSW 19.7 0.0 0.4
06:25 8.9 8.9 100 999.1 15.2 NW 19.7 0.0 0.4
06:26 8.9 8.9 100 998.9 12.1 SW 19.7 0.0 0.5
06:27 8.9 8.9 100 999.1 13.0 SW 19.7 0.8 0.5
06:28 8.9 8.9 100 999.1 15.9 WNW 19.7 0.8 0.5
06:29 8.9 8.9 100 999.2 19.7 SW 19.7 0.8 0.5
06:30 8.9 8.9 100 999.2 12.1 W 19.7 0.8 0.5
06:31 8.9 8.9 100 999.1 12.1 SSW 19.7 0.8 0.5
06:32 8.9 8.9 100 999.1 12.1 SW 19.7 0.0 0.5
06:33 8.9 8.9 100 999.1 12.1 WSW 19.7 0.0 0.5
06:34 8.8 8.8 100 999.0 11.4 W 19.7 0.0 0.5
06:35 8.8 8.8 100 999.3 8.3 NW 19.7 0.0 0.5
06:36 8.8 8.8 100 999.1 9.2 W 19.7 0.0 0.5
06:37 8.8 8.8 100 999.4 9.8 WSW 19.7 0.0 0.5
06:39 8.8 8.8 100 999.1 15.9 W 23.5 0.0 0.5
06:40 8.8 8.8 100 999.4 15.9 W 23.5 0.0 0.5
06:41 8.8 8.8 100 999.2 13.0 SW 23.5 0.0 0.5
06:42 8.8 8.8 100 999.0 13.6 W 23.5 0.0 0.5
06:43 8.8 8.8 100 999.4 15.9 W 23.5 0.0 0.5
06:44 8.8 8.8 100 999.4 21.3 S 23.5 0.0 0.5
06:45 8.8 8.8 100 999.2 17.4 SW 23.5 0.0 0.5
06:46 8.8 8.8 100 999.3 13.6 SW 23.5 0.0 0.5
06:47 8.8 8.8 100 999.4 13.6 W 23.5 0.0 0.5
06:48 8.8 8.8 100 999.4 15.2 SW 23.5 0.0 0.5
06:49 8.8 8.8 100 999.4 15.2 WSW 21.3 0.0 0.5
06:50 8.8 8.8 100 999.5 15.2 NW 21.3 0.0 0.6
06:51 8.8 8.8 100 999.6 15.2 SW 21.3 0.8 0.6
06:52 8.7 8.7 100 999.5 12.1 W 21.3 0.8 0.6
06:54 8.7 8.7 100 999.5 22.1 W 22.1 0.8 0.6
06:55 8.7 8.7 100 999.7 30.4 SW 30.4 0.8 0.6
06:56 8.7 8.7 100 999.7 18.3 SW 30.4 0.0 0.6
06:57 8.7 8.7 100 999.7 25.1 WSW 30.4 0.0 0.6
06:58 8.7 8.7 100 999.5 19.7 SW 30.4 0.0 0.6
06:59 8.7 8.7 100 999.5 19.7 SW 30.4 0.0 0.6
07:00 8.6 8.6 100 999.6 15.2 SW 30.4 0.0 0.6
07:01 8.6 8.6 100 999.7 15.2 SW 30.4 0.0 0.6
07:02 8.6 8.6 100 999.7 15.2 SW 30.4 0.0 0.6
07:03 8.6 8.6 100 999.7 15.2 SW 30.4 0.0 0.6
07:04 8.6 8.6 100 999.6 15.2 SW 30.4 0.0 0.6
07:05 8.6 8.6 100 999.8 15.2 SW 30.4 0.0 0.6
07:06 8.6 8.6 100 999.9 18.3 W 30.4 0.0 0.6
07:07 8.5 8.5 100 999.8 15.2 WSW 25.1 0.0 0.6
07:08 8.5 8.5 100 999.7 19.0 SW 19.7 0.0 0.6
07:09 8.5 8.5 100 999.8 13.6 W 19.0 0.0 0.6
07:11 8.5 8.5 100 999.8 19.0 SW 19.0 0.0 0.6
07:12 8.5 8.5 100 999.9 15.9 SW 19.0 0.0 0.6
07:13 8.5 8.5 100 999.9 15.9 WSW 19.0 0.0 0.6
07:14 8.5 8.5 100 1000.0 15.9 SW 19.0 0.0 0.6
07:15 8.5 8.5 100 999.9 19.0 WSW 19.0 0.0 0.6
07:16 8.5 8.5 100 1000.0 19.0 WSW 19.0 0.0 0.6
07:17 8.5 8.5 100 1000.0 14.5 SW 19.0 0.0 0.6
07:18 8.5 8.5 100 1000.2 17.4 WSW 19.0 0.0 0.6
07:19 8.5 8.5 100 1000.1 12.1 NW 19.0 0.0 0.6
07:20 8.5 8.5 100 1000.1 10.7 WSW 19.0 0.0 0.6
07:21 8.5 8.5 100 1000.0 12.1 SW 19.0 0.0 0.6
07:22 8.5 8.5 100 1000.1 15.2 SSW 19.0 0.0 0.6
07:23 8.5 8.5 100 1000.1 15.2 WSW 19.0 0.0 0.6
07:24 8.5 8.5 100 1000.1 11.4 SW 19.0 0.0 0.6
07:25 8.6 8.6 100 1000.2 11.4 SW 19.0 0.0 0.6
07:26 8.6 8.6 100 1000.2 13.0 WSW 17.4 0.0 0.6
07:27 8.6 8.6 100 1000.1 15.9 SW 17.4 0.0 0.6
07:29 8.6 8.6 100 1000.2 14.5 SW 15.9 0.0 0.6
07:30 8.6 8.6 100 1000.1 15.2 SW 15.9 0.0 0.6
07:31 8.6 8.6 100 1000.4 16.8 SSW 16.8 0.0 0.6
07:32 8.6 8.6 100 1000.4 18.3 SW 18.3 0.0 0.6
07:33 8.6 8.6 100 1000.4 13.0 W 18.3 0.0 0.6
07:34 8.6 8.6 100 1000.2 13.0 SW 18.3 0.0 0.6
07:35 8.6 8.6 100 1000.4 19.7 W 19.7 0.0 0.6
07:36 8.6 8.6 100 1000.4 15.9 WSW 19.7 0.0 0.6
07:37 8.6 8.6 100 1000.3 15.9 WSW 19.7 0.0 0.6
07:38 8.6 8.6 100 1000.5 18.3 SW 19.7 0.0 0.6
07:39 8.6 8.6 100 1000.3 19.0 W 19.7 0.0 0.6
07:40 8.6 8.6 100 1000.3 13.0 W 19.7 0.0 0.6
07:41 8.6 8.6 100 1000.5 11.4 SW 19.7 0.0 0.6
07:42 8.6 8.6 100 1000.5 14.5 SW 19.7 0.0 0.6
07:43 8.6 8.6 100 1000.4 15.9 SW 19.7 0.0 0.6
07:44 8.6 8.6 100 1000.4 12.1 WNW 19.7 0.8 0.6
07:45 8.6 8.6 100 1000.5 10.7 N 19.0 0.8 0.6
07:46 8.6 8.6 100 1000.5 10.7 N 19.0 0.8 0.6
07:48 8.6 8.6 100 1000.6 15.9 W 19.0 0.8 0.6
07:49 8.6 8.6 100 1000.5 15.9 W 15.9 0.0 0.6
07:50 8.6 8.6 100 1000.5 12.1 NNW 15.9 0.0 0.6
07:51 8.6 8.6 100 1000.6 13.6 W 15.9 0.0 0.6
07:52 8.6 8.6 100 1000.7 13.6 SW 15.9 0.0 0.6
07:53 8.6 8.6 100 1000.6 13.0 SW 15.9 0.0 0.6
07:54 8.6 8.6 100 1000.9 12.1 SW 15.9 0.0 0.6
07:55 8.6 8.6 100 1000.5 12.1 W 15.9 0.0 0.6
07:56 8.6 8.6 100 1000.6 12.1 W 15.9 0.0 0.6
07:57 8.6 8.6 100 1000.6 11.4 SW 15.9 0.0 0.6
07:58 8.6 8.6 100 1000.8 11.4 SW 15.9 0.0 0.6
07:59 8.6 8.6 100 1000.8 11.4 SW 15.9 0.0 0.6
08:00 8.6 8.6 100 1000.7 15.2 W 15.2 0.0 0.6
08:01 8.6 8.6 100 1000.9 15.2 SW 15.2 0.0 0.6
08:02 8.6 8.6 100 1000.7 13.6 S 15.9 0.0 0.6
08:03 8.6 8.6 100 1000.7 15.9 W 15.9 0.0 0.6
08:04 8.6 8.6 100 1000.9 12.1 WSW 15.9 0.0 0.6
08:05 8.7 8.7 100 1000.8 10.7 SW 15.9 0.0 0.6
08:07 8.7 8.7 100 1000.9 14.5 WSW 15.9 0.0 0.6
08:08 8.7 8.7 100 1000.9 10.7 WNW 15.9 0.0 0.6
08:09 8.7 8.7 100 1000.9 13.6 SW 15.9 0.0 0.6
08:10 8.7 8.7 100 1000.9 13.6 SW 15.9 0.0 0.6
08:11 8.7 8.7 100 1001.1 10.7 SW 15.9 0.0 0.6
08:12 8.7 8.7 100 1000.8 9.8 SW 15.9 0.0 0.6
08:13 8.7 8.7 100 1001.0 11.4 W 15.9 0.0 0.6
08:14 8.7 8.7 100 1000.9 13.0 SW 15.9 0.0 0.6
08:15 8.7 8.7 100 1001.0 12.1 W 14.5 0.0 0.6
08:16 8.7 8.7 100 1001.1 12.1 WSW 14.5 0.0 0.6
08:17 8.7 8.7 100 1001.1 12.1 SW 14.5 0.0 0.6
08:18 8.7 8.7 100 1001.2 15.2 S 15.2 0.0 0.6
08:19 8.7 8.7 100 1001.1 15.9 SW 15.9 0.0 0.6
08:20 8.7 8.7 100 1001.1 11.4 SW 15.9 0.0 0.6
08:21 8.7 8.7 100 1001.0 13.6 W 15.9 0.0 0.6
08:22 8.8 8.8 100 1001.2 14.5 SW 15.9 0.0 0.6
08:23 8.8 8.8 100 1000.9 14.5 W 15.9 0.0 0.6
08:25 8.8 8.8 100 1001.1 14.5 W 15.9 0.0 0.6
08:26 8.8 8.8 100 1001.2 10.7 W 15.9 0.0 0.6
08:27 8.8 8.8 100 1001.4 11.4 SW 15.9 0.0 0.6
08:28 8.9 8.9 100 1001.2 14.5 SW 15.9 0.0 0.6
08:29 8.9 8.9 100 1001.2 14.5 SW 15.9 0.0 0.6
08:30 8.9 8.9 100 1001.1 10.7 W 14.5 0.0 0.6
08:31 8.9 8.9 100 1001.4 12.1 W 14.5 0.0 0.6
08:32 8.9 8.9 100 1001.2 18.3 SW 18.3 0.0 0.6
08:33 8.9 8.9 100 1001.3 18.3 W 18.3 0.0 0.6
08:34 8.9 8.9 100 1001.4 14.5 W 18.3 0.0 0.6
08:35 8.9 8.9 100 1001.2 15.9 W 18.3 0.0 0.6
08:36 8.9 8.9 100 1001.3 15.9 W 18.3 0.0 0.6
08:37 9.0 9.0 100 1001.5 13.0 S 18.3 0.0 0.6
08:38 9.0 9.0 100 1001.5 16.8 W 18.3 0.0 0.6
08:39 9.0 9.0 100 1001.2 16.8 W 18.3 0.0 0.6
08:40 9.0 9.0 100 1001.4 15.2 W 18.3 0.0 0.6
08:41 9.1 9.1 100 1001.3 16.8 SW 18.3 0.0 0.6
08:43 9.1 9.1 100 1001.3 13.0 W 16.8 0.0 0.6
08:44 9.1 9.1 100 1001.6 11.4 SW 16.8 0.0 0.6
08:45 9.1 9.1 100 1001.6 9.8 W 16.8 0.0 0.6
08:46 9.2 9.2 100 1001.4 8.3 SW 16.8 0.0 0.6
08:47 9.2 9.2 100 1001.5 12.1 SW 16.8 0.0 0.6
08:48 9.2 9.2 100 1001.8 13.0 W 16.8 0.0 0.6
08:49 9.2 9.2 100 1001.7 15.9 WNW 16.8 0.0 0.6
08:50 9.3 9.3 100 1001.8 19.0 WSW 19.0 0.0 0.6
08:51 9.3 9.3 100 1001.6 13.0 W 19.0 0.0 0.6
08:52 9.3 9.3 100 1001.6 14.5 W 19.0 0.0 0.6
08:53 9.3 9.3 100 1001.8 15.2 W 19.0 0.0 0.6
08:54 9.3 9.3 100 1001.7 14.5 W 19.0 0.0 0.6
08:55 9.3 9.3 100 1001.6 16.8 SW 19.0 0.0 0.6
08:56 9.3 9.3 100 1001.8 16.8 NW 19.0 0.0 0.6
08:57 9.3 9.3 100 1001.7 17.4 WSW 19.0 0.0 0.6
08:58 9.3 9.3 100 1001.9 17.4 WSW 19.0 0.0 0.6
08:59 9.3 9.3 100 1001.9 15.9 SW 19.0 0.0 0.6
09:00 9.4 9.4 100 1001.7 14.5 W 19.0 0.0 0.6
09:02 9.4 9.4 100 1001.8 14.5 W 17.4 0.0 0.6
09:03 9.4 9.4 100 1001.8 14.5 W 17.4 0.0 0.6
09:05 9.4 9.4 100 1001.8 14.5 W 17.4 0.0 0.6
09:06 9.4 9.4 100 1001.7 14.5 W 17.4 0.0 0.6
09:07 9.5 9.5 100 1001.8 15.2 W 17.4 0.0 0.6
09:08 9.5 9.5 100 1002.0 15.2 W 17.4 0.0 0.6
09:09 9.5 9.5 100 1001.7 14.5 WSW 15.9 0.0 0.6
09:10 9.5 9.5 100 1001.9 15.9 NW 15.9 0.0 0.6
09:11 9.5 9.5 100 1001.8 13.6 SW 15.9 0.0 0.6
09:12 9.5 9.5 100 1002.0 13.6 SW 15.9 0.0 0.6
09:13 9.5 9.5 100 1001.9 13.6 SW 15.9 0.0 0.6
09:14 9.6 9.6 100 1002.0 15.9 W 15.9 0.0 0.6
09:15 9.6 9.6 100 1002.1 15.9 W 15.9 0.0 0.6
09:16 9.6 9.6 100 1001.8 18.3 WNW 18.3 0.0 0.6
09:17 9.6 9.6 100 1002.1 18.3 WNW 18.3 0.0 0.6
09:18 9.7 9.7 100 1002.1 18.3 SW 18.3 0.0 0.6
09:19 9.7 9.7 100 1002.1 13.6 WNW 18.3 0.0 0.6
09:21 9.8 9.8 100 1002.2 17.4 S 18.3 0.0 0.6
09:22 9.8 9.8 100 1002.4 19.7 SW 19.7 0.0 0.6
09:23 9.8 9.8 100 1002.3 21.3 W 21.3 0.0 0.6
09:24 9.8 9.8 100 1002.4 19.7 WNW 21.3 0.0 0.6
09:29 9.8 9.8 100 1002.4 15.9 SW 21.3 0.0 0.6
09:30 9.8 9.8 100 1002.3 18.3 SW 21.3 0.0 0.6
09:31 9.8 9.8 100 1002.4 15.2 S 21.3 0.0 0.6
09:32 9.8 9.8 100 1002.3 15.2 W 21.3 0.0 0.6
09:33 9.8 9.8 100 1002.2 18.3 WSW 21.3 0.0 0.6
09:34 9.8 9.8 100 1002.3 19.0 NW 19.7 0.0 0.6
09:35 9.8 9.8 100 1002.4 19.0 NW 19.7 0.0 0.6
09:36 9.9 9.9 100 1002.4 12.1 W 19.7 0.0 0.6
09:37 9.9 9.9 100 1002.4 18.3 W 19.0 0.0 0.6
09:39 9.9 9.9 100 1002.5 18.3 NW 19.0 0.0 0.6
09:40 9.9 9.9 100 1002.6 20.6 SW 20.6 0.0 0.6
09:41 9.9 9.9 100 1002.4 20.6 W 20.6 0.0 0.6
09:42 9.9 9.9 100 1002.6 13.0 SW 20.6 0.0 0.6
09:43 9.9 9.9 100 1002.5 13.6 WSW 20.6 0.0 0.6
09:52 10.0 9.9 99 1002.7 14.5 WSW 17.4 0.0 0.6
09:53 10.0 9.9 99 1002.5 14.5 SW 17.4 0.0 0.6
09:54 10.0 9.9 99 1002.5 18.3 NW 18.3 0.0 0.6
09:55 10.1 10.0 99 1002.7 13.6 SW 18.3 0.0 0.6
09:57 10.1 10.0 99 1002.9 14.5 WSW 18.3 0.0 0.6
09:58 10.1 10.0 99 1002.7 14.5 SW 18.3 0.0 0.6
09:59 10.2 10.1 99 1002.7 11.4 W 18.3 0.0 0.6
10:05 10.3 9.8 97 1003.0 18.3 SW 22.8 0.0 0.6
10:06 10.4 9.9 97 1002.8 13.0 SW 22.8 0.0 0.6
10:07 10.4 9.9 97 1002.9 10.7 SW 22.8 0.0 0.6
10:08 10.4 9.8 96 1003.1 14.5 SW 22.8 0.0 0.6
10:09 10.4 9.8 96 1003.1 15.2 SW 22.8 0.0 0.6
10:13 10.3 9.5 95 1003.1 17.4 W 18.3 0.0 0.6
10:14 10.3 9.5 95 1003.1 14.5 W 18.3 0.0 0.6
10:15 10.3 9.4 94 1003.1 15.2 W 17.4 0.0 0.6
10:17 10.2 9.3 94 1003.3 14.5 SW 17.4 0.0 0.6
10:18 10.2 9.1 93 1003.3 10.7 SSW 17.4 0.0 0.6
10:19 10.2 9.1 93 1003.2 15.9 SW 17.4 0.0 0.6
10:20 10.2 9.1 93 1003.2 15.9 NW 17.4 0.0 0.6
10:21 10.2 9.1 93 1003.1 15.9 NW 17.4 0.0 0.6
10:27 10.3 9.1 92 1003.3 19.0 WSW 19.7 0.0 0.6
10:28 10.3 9.1 92 1003.2 19.0 WSW 19.7 0.0 0.6
10:29 10.3 9.1 92 1003.4 17.4 WNW 19.7 0.0 0.6
10:30 10.3 9.1 92 1003.1 13.6 W 19.7 0.0 0.6
10:31 10.4 9.2 92 1003.2 13.6 SW 19.7 0.0 0.6
10:32 10.4 9.2 92 1003.4 17.4 W 19.7 0.0 0.6
10:33 10.4 9.2 92 1003.4 17.4 W 19.0 0.0 0.6
10:35 10.4 9.0 91 1003.5 13.0 SW 19.0 0.0 0.6
10:36 10.5 9.1 91 1003.5 13.0 WSW 19.0 0.0 0.6
10:37 10.5 9.1 91 1003.6 13.0 SW 19.0 0.0 0.6
10:38 10.5 9.1 91 1003.6 19.7 SW 19.7 0.0 0.6
10:39 10.5 9.1 91 1003.4 19.7 SW 19.7 0.0 0.6
10:40 10.5 9.1 91 1003.6 18.3 SW 19.7 0.0 0.6
10:41 10.5 9.1 91 1003.6 13.6 SW 19.7 0.0 0.6
10:42 10.6 9.2 91 1003.6 20.6 SW 20.6 0.0 0.6
10:43 10.6 9.2 91 1003.5 20.6 W 20.6 0.0 0.6
10:44 10.6 9.2 91 1003.6 19.0 SW 20.6 0.0 0.6
10:45 10.6 9.2 91 1003.6 18.3 SW 20.6 0.0 0.6
10:46 10.7 9.3 91 1003.4 15.9 W 20.6 0.0 0.6
10:48 10.8 9.4 91 1003.7 22.1 SW 22.1 0.0 0.6
10:49 10.9 9.5 91 1003.5 17.4 SW 22.1 0.0 0.6
10:50 10.9 9.5 91 1003.7 17.4 SW 22.1 0.0 0.6
10:51 11.0 9.6 91 1003.7 14.5 SW 22.1 0.0 0.6
10:54 11.1 9.5 90 1003.7 23.5 W 23.5 0.0 0.6
10:55 11.1 9.5 90 1003.8 17.4 WSW 23.5 0.0 0.6
10:56 11.2 9.6 90 1003.8 17.4 S 23.5 0.0 0.6
10:58 11.3 9.7 90 1003.9 19.7 W 23.5 0.0 0.6
10:59 11.3 9.7 90 1003.9 19.7 W 23.5 0.0 0.6
11:23 11.0 8.8 86 1004.1 16.8 SW 18.3 0.0 0.6
11:24 11.0 8.9 87 1004.0 14.5 W 18.3 0.0 0.6
11:25 11.0 8.9 87 1004.1 13.0 WSW 18.3 0.0 0.6
12:05 11.4 8.6 83 1004.4 14.5 NW 20.6 0.0 0.6
12:10 11.5 8.7 83 1004.4 11.4 S 20.6 0.0 0.6
12:11 11.6 8.8 83 1004.4 10.7 NW 20.6 0.0 0.6
12:17 11.9 9.1 83 1004.6 12.1 SW 19.7 0.0 0.6
12:18 12.0 9.2 83 1004.6 19.0 SW 19.7 0.0 0.6
12:19 12.1 9.5 84 1004.7 15.2 SW 19.7 0.0 0.6
12:20 12.2 9.6 84 1004.6 15.2 SW 19.7 0.0 0.6
12:22 12.4 9.8 84 1004.7 18.3 SW 19.7 0.0 0.6
12:23 12.5 9.3 81 1004.6 17.4 SW 19.7 0.0 0.6
12:24 12.6 9.4 81 1004.8 20.6 SW 20.6 0.0 0.6
13:43 12.2 8.9 80 1005.4 16.8 S 16.8 0.0 0.6
13:44 12.3 9.0 80 1005.3 13.0 SW 16.8 0.0 0.6
13:45 12.3 9.0 80 1005.2 9.8 S 16.8 0.0 0.6
13:46 12.4 9.2 81 1005.6 9.2 SW 16.8 0.0 0.6
13:47 12.4 9.2 81 1005.4 9.2 SW 16.8 0.0 0.6
13:48 12.5 9.0 79 1005.3 20.6 S 20.6 0.0 0.6
13:49 12.5 9.0 79 1005.3 15.2 SW 20.6 0.0 0.6
13:50 12.5 9.0 79 1005.3 15.2 SW 20.6 0.0 0.6
13:51 12.6 9.1 79 1005.4 14.5 S 20.6 0.0 0.6
13:52 12.6 9.1 79 1005.3 14.5 SW 20.6 0.0 0.6
13:53 12.6 9.1 79 1005.4 15.2 SE 20.6 0.0 0.6
13:54 12.6 9.1 79 1005.3 13.0 SW 20.6 0.0 0.6
13:55 12.6 9.1 79 1005.5 13.0 SW 20.6 0.0 0.6
13:56 12.5 8.8 78 1005.3 13.6 SW 20.6 0.0 0.6
13:57 12.5 8.8 78 1005.4 13.6 SW 20.6 0.0 0.6
13:58 12.5 8.8 78 1005.4 15.2 S 20.6 0.0 0.6
13:59 12.5 8.8 78 1005.5 17.4 SW 20.6 0.0 0.6
14:00 12.4 9.0 80 1005.5 16.8 SW 17.4 0.0 0.6
14:01 12.4 9.0 80 1005.3 14.5 SW 17.4 0.0 0.6
14:03 12.4 9.2 81 1005.1 12.1 SW 17.4 0.0 0.6
14:04 12.4 9.2 81 1005.6 12.1 S 17.4 0.0 0.6
14:05 12.4 9.2 81 1005.4 12.1 S 17.4 0.0 0.6
14:06 12.4 9.2 81 1005.2 12.1 S 17.4 0.0 0.6
14:07 12.4 9.2 81 1005.3 12.1 S 17.4 0.0 0.6
14:08 12.4 9.2 81 1005.4 12.1 S 17.4 0.0 0.6
14:09 12.4 9.2 81 1005.5 12.1 S 16.8 0.0 0.6
14:10 12.4 9.2 81 1005.5 12.1 S 16.8 0.0 0.6
14:11 12.4 9.2 81 1005.5 11.4 SW 15.2 0.0 0.6
14:12 12.4 9.2 81 1005.3 12.1 SW 12.1 0.0 0.6
14:13 12.4 9.2 81 1005.6 10.7 S 12.1 0.0 0.6
14:14 12.4 9.2 81 1005.4 13.6 SW 13.6 0.0 0.6
14:15 12.4 9.2 81 1005.6 13.6 S 13.6 0.0 0.6
14:16 12.4 9.2 81 1005.7 15.9 SW 15.9 0.0 0.6
14:17 12.4 9.2 81 1005.5 15.9 S 15.9 0.0 0.6
14:18 12.4 9.2 81 1005.6 15.2 SW 15.9 0.0 0.6
14:19 12.5 9.0 79 1005.5 14.5 SW 15.9 0.0 0.6
14:20 12.5 9.0 79 1005.5 13.0 SE 15.9 0.0 0.6
14:22 12.5 8.8 78 1005.4 9.8 SSW 15.9 0.0 0.6
14:23 12.6 8.9 78 1005.5 13.6 SW 15.9 0.0 0.6
14:24 12.6 8.9 78 1005.3 13.6 SW 15.9 0.0 0.6
14:25 12.6 8.9 78 1005.6 19.7 SW 19.7 0.0 0.6
14:26 12.6 8.9 78 1005.3 19.7 SW 19.7 0.0 0.6
14:27 12.6 8.9 78 1005.4 10.7 SW 19.7 0.0 0.6
14:28 12.6 8.7 77 1005.3 15.2 SW 19.7 0.0 0.6
14:29 12.6 8.7 77 1005.4 15.2 SW 19.7 0.0 0.6
14:30 12.6 8.7 77 1005.5 15.2 SW 19.7 0.0 0.6
14:31 12.5 8.6 77 1005.6 13.6 S 19.7 0.0 0.6
14:32 12.5 8.6 77 1005.4 13.6 S 19.7 0.0 0.6
14:33 12.5 8.6 77 1005.3 13.6 SSW 19.7 0.0 0.6
14:34 12.5 8.6 77 1005.5 15.2 SW 19.7 0.0 0.6
14:35 12.4 9.0 80 1005.7 9.8 S 19.7 0.0 0.6
14:36 12.4 9.0 80 1005.4 12.1 SW 19.7 0.0 0.6
14:37 12.4 9.0 80 1005.4 12.1 SW 15.2 0.0 0.6
14:38 12.4 9.0 80 1005.5 13.0 SE 15.2 0.0 0.6
14:39 12.4 9.0 80 1005.8 11.4 WSW 15.2 0.0 0.6
14:42 12.4 9.2 81 1005.6 15.9 SW 15.9 0.0 0.6
14:43 12.4 9.2 81 1005.8 13.0 W 15.9 0.0 0.6
14:44 12.4 9.2 81 1005.5 13.6 SW 15.9 0.0 0.6
14:45 12.3 9.1 81 1005.7 14.5 SW 15.9 0.0 0.6
14:46 12.3 9.1 81 1005.6 10.7 WSW 15.9 0.0 0.6
14:48 12.3 9.1 81 1005.4 13.6 SW 15.9 0.0 0.6
14:49 12.3 9.1 81 1005.6 11.4 SW 15.9 0.0 0.6
14:50 12.3 9.1 81 1005.5 14.5 SW 15.9 0.0 0.6
14:51 12.3 9.1 81 1005.4 14.5 SW 15.9 0.0 0.6
14:52 12.3 9.1 81 1005.6 13.6 SW 15.9 0.0 0.6
14:53 12.3 9.1 81 1005.5 13.6 SSE 14.5 0.0 0.6
14:54 12.3 9.3 82 1005.5 15.9 SW 15.9 0.0 0.6
14:55 12.3 9.3 82 1005.5 15.2 SW 15.9 0.0 0.6
14:56 12.3 9.3 82 1005.4 12.1 S 15.9 0.0 0.6
14:57 12.3 9.3 82 1005.5 12.1 S 15.9 0.0 0.6
14:58 12.3 9.3 82 1005.5 12.1 S 15.9 0.0 0.6
15:00 12.3 9.3 82 1005.2 14.5 SW 15.9 0.0 0.6
15:01 12.3 9.3 82 1005.5 14.5 SW 15.9 0.0 0.6
15:02 12.3 9.3 82 1005.4 14.5 SW 15.9 0.0 0.6
15:03 12.3 9.3 82 1005.5 14.5 SW 15.9 0.0 0.6
15:04 12.3 9.3 82 1005.4 14.5 SW 15.2 0.0 0.6
15:12 12.1 9.1 82 1005.6 11.4 SSE 15.9 0.0 0.6
15:13 12.1 9.1 82 1005.7 13.0 S 15.9 0.0 0.6
15:14 12.1 9.1 82 1005.7 15.9 SE 15.9 0.0 0.6
15:15 12.1 9.1 82 1006.1 12.1 S 16.8 0.0 0.6
15:17 12.0 9.0 82 1006.0 13.6 S 17.4 0.0 0.6
15:18 12.0 9.0 82 1005.9 13.6 S 17.4 0.0 0.6
15:19 12.0 9.0 82 1005.9 13.6 S 17.4 0.0 0.6
15:20 11.8 8.8 82 1005.8 15.2 S 17.4 0.0 0.6
15:21 11.8 8.8 82 1005.5 15.2 S 17.4 0.0 0.6
15:22 11.8 8.8 82 1005.8 15.2 S 17.4 0.0 0.6
15:23 11.8 8.8 82 1005.4 15.2 S 17.4 0.0 0.6
15:24 11.6 8.6 82 1005.5 12.1 SW 17.4 0.0 0.6
15:25 11.6 8.6 82 1005.6 12.1 SW 17.4 0.0 0.6
15:26 11.6 8.6 82 1005.6 12.1 SW 17.4 0.0 0.6
15:27 11.5 8.5 82 1005.7 11.4 SSE 17.4 0.0 0.6
15:28 11.5 8.5 82 1005.6 14.5 S 15.2 0.0 0.6
15:29 11.4 8.4 82 1005.9 14.5 S 15.2 0.0 0.6
15:30 11.4 8.4 82 1005.9 16.8 SW 16.8 0.0 0.6
15:39 11.2 8.2 82 1005.8 16.8 S 17.4 0.0 0.6
15:45 11.1 8.1 82 1005.7 15.2 SW 17.4 0.0 0.6
15:46 11.1 8.1 82 1005.7 13.6 SSE 17.4 0.0 0.6
15:47 11.1 8.1 82 1005.6 11.4 S 16.8 0.0 0.6
15:48 11.1 8.3 83 1005.6 10.7 S 16.8 0.0 0.6
15:49 11.1 8.3 83 1005.5 12.1 S 16.8 0.0 0.6
15:50 11.1 8.3 83 1005.6 13.6 S 16.8 0.0 0.6
15:51 11.1 8.3 83 1005.4 12.1 S 15.2 0.0 0.6
15:53 11.1 8.3 83 1005.3 10.7 SW 15.2 0.0 0.6
15:54 11.1 8.3 83 1005.5 12.1 SW 15.2 0.0 0.6
15:55 11.1 8.3 83 1005.4 9.8 S 14.5 0.0 0.6
15:58 11.1 8.5 84 1005.4 13.6 S 14.5 0.0 0.6
15:59 11.1 8.5 84 1005.4 13.6 SW 14.5 0.0 0.6
16:02 11.1 8.5 84 1005.3 13.0 SW 14.5 0.0 0.6
16:03 11.1 8.5 84 1005.2 9.8 SSE 14.5 0.0 0.6
16:04 11.1 8.5 84 1005.4 13.6 S 13.6 0.0 0.6
16:06 11.1 8.5 84 1005.3 13.6 S 13.6 0.0 0.6
16:07 11.1 8.5 84 1005.1 12.1 S 13.6 0.0 0.6
16:08 11.1 8.5 84 1005.3 13.0 SW 13.6 0.0 0.6
16:09 11.1 8.5 84 1005.1 10.7 SE 13.6 0.0 0.6
16:12 11.1 8.5 84 1005.2 10.7 E 14.5 0.0 0.6
16:13 11.0 8.4 84 1005.1 13.6 SE 14.5 0.0 0.6
16:14 11.0 8.4 84 1005.2 13.6 SE 14.5 0.0 0.6
16:15 11.0 8.6 85 1005.0 14.5 S 14.5 0.0 0.6
16:16 11.0 8.6 85 1005.2 13.0 S 14.5 0.0 0.6
16:17 10.9 8.5 85 1005.3 15.2 S 15.2 0.0 0.6
16:18 10.9 8.5 85 1005.3 15.2 S 15.2 0.0 0.6
16:19 10.9 8.3 84 1005.1 15.9 SE 15.9 0.0 0.6
16:20 10.9 8.3 84 1005.3 15.2 S 15.9 0.0 0.6
16:21 10.9 8.3 84 1005.2 13.6 S 15.9 0.0 0.6
16:22 10.8 8.2 84 1005.2 13.0 S 15.9 0.0 0.6
16:23 10.8 8.2 84 1005.1 13.6 SSE 15.9 0.0 0.6
16:24 10.8 8.2 84 1005.0 15.9 SW 15.9 0.0 0.6
16:25 10.8 8.2 84 1004.9 15.9 SW 15.9 0.0 0.6
16:26 10.8 8.2 84 1005.1 13.6 SSE 15.9 0.0 0.6
16:27 10.8 8.2 84 1005.0 12.1 S 15.9 0.0 0.6
16:28 10.8 8.2 84 1004.9 10.7 S 15.9 0.0 0.6
16:30 10.8 8.2 84 1004.9 7.6 SW 15.9 0.0 0.6
16:31 10.8 8.2 84 1004.9 12.1 S 15.9 0.0 0.6
16:32 10.8 8.2 84 1005.0 14.5 S 15.9 0.0 0.6
16:33 10.8 8.2 84 1004.7 9.8 S 15.9 0.0 0.6
16:34 10.8 8.2 84 1004.8 9.8 S 15.9 0.0 0.6
16:35 10.8 8.2 84 1004.7 9.8 S 14.5 0.0 0.6
16:37 10.7 8.1 84 1004.9 16.8 S 16.8 0.0 0.6
16:38 10.7 8.1 84 1004.7 9.8 S 16.8 0.0 0.6
16:39 10.7 8.1 84 1004.9 11.4 SW 16.8 0.0 0.6
16:40 10.7 8.1 84 1004.8 11.4 SW 16.8 0.0 0.6
16:41 10.6 8.0 84 1004.9 12.1 SE 16.8 0.0 0.6
16:42 10.6 8.0 84 1004.9 12.1 SE 16.8 0.0 0.6
16:43 10.6 8.0 84 1005.0 9.8 SSW 16.8 0.0 0.6
16:44 10.6 8.0 84 1004.9 13.6 S 16.8 0.0 0.6
16:45 10.5 7.9 84 1004.7 13.0 S 16.8 0.0 0.6
16:46 10.5 7.9 84 1004.6 11.4 SW 16.8 0.0 0.6
16:47 10.5 7.9 84 1004.5 15.2 S 16.8 0.0 0.6
16:48 10.5 7.9 84 1004.6 12.1 S 15.2 0.0 0.6
16:50 10.4 7.8 84 1004.7 9.8 S 15.2 0.0 0.6
16:51 10.4 7.8 84 1004.7 15.2 SE 15.2 0.0 0.6
16:52 10.3 7.7 84 1004.6 10.7 SE 15.2 0.0 0.6
16:53 10.3 7.7 84 1004.7 11.4 SSW 15.2 0.0 0.6
16:55 10.3 7.7 84 1004.5 11.4 SSW 15.2 0.0 0.6
16:56 10.3 7.7 84 1004.3 11.4 SSW 15.2 0.0 0.6
16:57 10.3 7.7 84 1004.3 11.4 SSW 15.2 0.0 0.6
16:58 10.2 7.8 85 1004.5 10.7 S 15.2 0.0 0.6
16:59 10.2 7.8 85 1004.8 10.7 S 15.2 0.0 0.6
17:02 10.2 7.8 85 1004.6 11.4 SE 11.4 0.0 0.6
17:03 10.2 7.8 85 1004.5 11.4 SE 11.4 0.0 0.6
17:04 10.2 7.8 85 1004.6 11.4 SE 11.4 0.0 0.6
17:05 10.2 7.8 85 1004.5 11.4 SE 11.4 0.0 0.6
17:06 10.2 7.8 85 1004.2 11.4 SE 11.4 0.0 0.6
17:07 9.9 7.8 87 1004.3 8.3 S 11.4 0.0 0.6
17:09 9.9 7.8 87 1004.3 12.1 SW 12.1 0.0 0.6
17:10 9.8 7.7 87 1004.3 10.7 S 12.1 0.0 0.6
17:11 9.8 7.7 87 1004.3 10.7 S 12.1 0.0 0.6
17:12 9.8 7.7 87 1004.3 13.0 SE 13.0 0.0 0.6
17:13 9.7 7.6 87 1004.5 9.8 S 13.0 0.0 0.6
17:14 9.7 7.6 87 1004.4 9.8 S 13.0 0.0 0.6
17:15 9.7 7.8 88 1004.4 10.7 S 13.0 0.0 0.6
17:16 9.7 7.8 88 1004.3 10.7 S 13.0 0.0 0.6
17:18 9.6 7.7 88 1004.2 12.1 SE 13.0 0.0 0.6
17:19 9.6 7.7 88 1004.4 11.4 SSE 13.0 0.0 0.6
17:20 9.6 7.7 88 1004.1 11.4 S 13.0 0.0 0.6
17:21 9.5 7.6 88 1004.5 12.1 S 13.0 0.8 0.7
17:22 9.5 7.6 88 1004.3 12.1 S 13.0 0.8 0.7
17:23 9.5 7.8 89 1004.3 9.2 SE 13.0 0.8 0.7
17:24 9.5 7.8 89 1004.4 8.3 S 12.1 0.8 0.7
17:25 9.5 7.8 89 1004.3 9.8 S 12.1 0.8 0.7
17:27 9.4 7.7 89 1004.2 9.2 SE 12.1 0.0 0.7
17:28 9.4 7.7 89 1004.3 7.6 S 12.1 0.0 0.7
17:29 9.4 7.7 89 1004.4 6.9 S 12.1 0.0 0.7
17:30 9.4 7.7 89 1004.4 6.0 SSE 12.1 0.0 0.7
17:31 9.4 7.7 89 1004.3 6.0 S 12.1 0.0 0.7
17:32 9.4 7.7 89 1004.2 7.6 SE 12.1 0.0 0.7
17:33 9.4 7.7 89 1004.1 7.6 SE 9.8 0.0 0.7
17:34 9.4 7.7 89 1004.1 6.9 SE 9.8 0.0 0.8
17:35 9.4 7.7 89 1004.5 7.6 SSE 9.8 0.8 0.8
17:36 9.4 7.7 89 1004.3 7.6 SSE 9.2 0.8 0.8
17:37 9.3 7.6 89 1004.4 6.0 S 9.2 1.5 0.8
17:38 9.3 7.7 90 1004.2 7.6 SSE 7.6 1.5 0.8
17:39 9.3 7.7 90 1004.2 7.6 S 7.6 1.5 0.8
17:40 9.3 7.7 90 1004.0 6.9 ENE 7.6 0.8 0.8
17:41 9.3 7.7 90 1004.1 6.9 ENE 7.6 0.8 0.8
17:43 9.3 7.7 90 1004.1 6.9 S 10.7 0.8 0.9
17:44 9.3 7.7 90 1004.0 5.4 SE 10.7 0.8 0.9
17:45 9.3 7.7 90 1003.9 6.0 S 10.7 0.8 0.9
17:47 9.3 7.7 90 1003.9 8.3 S 10.7 1.5 0.9
17:48 9.3 7.7 90 1003.9 8.3 SE 10.7 0.8 0.9
17:49 9.3 7.7 90 1004.0 4.5 SSE 10.7 0.8 0.9
17:50 9.3 7.9 91 1004.0 3.8 S 10.7 0.8 0.9
17:51 9.3 7.9 91 1004.1 6.9 SSE 10.7 0.0 0.9
17:52 9.3 7.9 91 1004.1 7.6 SSE 10.7 0.0 0.9
17:53 9.3 7.9 91 1004.1 6.9 SE 8.3 0.0 0.9
17:54 9.3 7.9 91 1004.1 6.9 SE 8.3 0.0 0.9
17:55 9.3 7.9 91 1004.0 6.0 SE 8.3 0.0 0.9
17:56 9.3 7.9 91 1004.1 8.3 SSE 8.3 0.0 0.9
17:57 9.3 7.9 91 1003.8 8.3 SSE 8.3 0.0 0.9
17:58 9.3 7.9 91 1003.9 8.3 S 8.3 0.0 0.9
17:59 9.3 7.9 91 1003.8 8.3 S 8.3 0.0 0.9
18:00 9.3 7.9 91 1003.7 6.0 S 8.3 0.0 0.9
18:01 9.3 8.1 92 1003.9 5.4 S 8.3 0.0 0.9
18:02 9.3 8.1 92 1004.0 6.9 S 8.3 0.0 0.9
18:03 9.3 8.1 92 1004.1 8.3 S 8.3 0.0 0.9
18:05 9.3 8.1 92 1003.9 8.3 SE 8.3 0.0 0.9
18:06 9.3 8.1 92 1003.8 9.8 SE 9.8 0.0 0.9
18:07 9.3 8.1 92 1003.7 6.0 S 9.8 0.0 0.9
18:08 9.3 8.1 92 1003.7 4.5 SE 9.8 0.0 0.9
18:09 9.3 8.1 92 1003.8 4.5 SSE 9.8 0.0 0.9
18:10 9.3 8.1 92 1003.6 6.9 S 9.8 0.0 0.9
18:11 9.3 8.2 93 1003.6 6.9 S 9.8 0.0 0.9
18:12 9.3 8.2 93 1003.6 6.9 S 9.8 0.0 0.9
18:26 9.3 8.4 94 1003.5 6.9 NW 8.3 0.0 1.0
18:27 9.3 8.4 94 1003.4 4.5 N 8.3 0.0 1.0
18:28 9.3 8.4 94 1003.6 6.9 SE 8.3 0.0 1.0
18:29 9.3 8.5 95 1003.5 6.9 SE 8.3 0.0 1.0
18:30 9.4 8.6 95 1003.5 8.3 SE 8.3 0.0 1.0
18:31 9.4 8.6 95 1003.6 5.4 SE 9.2 0.0 1.0
18:32 9.4 8.6 95 1003.6 3.8 NE 9.2 0.0 1.0
18:33 9.4 8.6 95 1003.4 6.9 E 9.2 0.0 1.0
18:34 9.4 8.6 95 1003.3 8.3 E 9.2 0.0 1.0
18:35 9.4 8.6 95 1003.5 4.5 E 9.2 0.0 1.0
18:36 9.4 8.8 96 1003.3 10.7 SE 10.7 0.0 1.0
18:37 9.4 8.8 96 1003.3 6.9 S 13.6 0.0 1.0
18:40 9.5 8.9 96 1003.2 7.6 N 13.6 0.8 1.1
18:41 9.5 8.9 96 1003.5 6.0 NW 13.6 0.8 1.1
18:42 9.5 8.9 96 1003.2 7.6 S 13.6 0.8 1.1
18:43 9.5 8.9 96 1003.4 5.4 SW 13.6 0.8 1.1
18:44 9.5 9.0 97 1003.3 3.8 W 13.6 0.8 1.1
18:45 9.5 9.0 97 1003.3 3.8 NE 13.6 0.8 1.1
18:46 9.5 9.0 97 1003.3 3.8 NE 13.6 0.8 1.1
18:47 9.5 9.0 97 1003.2 4.5 S 13.6 0.8 1.2
18:48 9.5 9.0 97 1003.1 3.1 SE 7.6 1.5 1.2
18:49 9.5 9.0 97 1003.0 3.8 SE 7.6 1.5 1.2
18:50 9.5 9.0 97 1003.2 3.8 NW 7.6 0.8 1.2
18:51 9.5 9.0 97 1003.1 6.9 N 7.6 1.5 1.3
18:52 9.5 9.2 98 1003.2 3.8 SE 7.6 1.5 1.3
18:53 9.5 9.2 98 1003.2 6.0 SE 6.9 1.5 1.3
18:54 9.5 9.2 98 1003.0 6.0 SW 6.9 1.5 1.3
18:55 9.5 9.2 98 1003.0 6.0 S 6.9 3.0 1.5
18:56 9.5 9.2 98 1003.1 6.0 SW 6.9 3.8 1.7
18:58 9.5 9.2 98 1003.1 6.0 E 6.9 4.5 1.8
18:59 9.5 9.2 98 1003.0 4.5 SW 6.9 5.3 1.8
19:01 9.5 9.4 99 1003.1 4.5 SE 6.9 3.0 1.8
19:02 9.5 9.4 99 1002.8 4.5 SE 6.0 1.5 1.8
19:03 9.5 9.4 99 1002.9 4.5 SE 6.0 1.5 1.8
19:04 9.5 9.4 99 1002.7 4.5 SE 6.0 0.8 1.8
19:06 9.5 9.4 99 1003.1 4.5 SE 6.0 0.0 1.8
19:07 9.6 9.5 99 1002.8 5.4 E 6.0 0.0 2.0
19:08 9.6 9.5 99 1002.8 3.8 S 6.0 1.5 2.0
19:09 9.6 9.5 99 1002.9 5.4 E 5.4 1.5 2.0
19:10 9.6 9.5 99 1002.8 5.4 E 5.4 1.5 2.0
19:12 9.6 9.5 99 1002.9 5.4 SE 5.4 2.3 2.0
19:13 9.6 9.5 99 1002.9 5.4 NW 5.4 0.8 2.0
19:14 9.6 9.5 99 1002.8 5.4 SSE 5.4 1.5 2.1
19:15 9.6 9.5 99 1002.8 3.1 N 5.4 1.5 2.1
19:17 9.6 9.5 99 1002.6 3.8 SE 5.4 3.0 2.3
19:18 9.7 9.7 100 1002.5 3.1 SSW 5.4 3.0 2.3
19:19 9.7 9.7 100 1002.5 3.1 N 5.4 3.0 2.3
19:20 9.7 9.7 100 1002.4 2.2 ENE 5.4 3.0 2.3
19:21 9.7 9.7 100 1002.4 1.6 NW 5.4 1.5 2.4
19:22 9.7 9.7 100 1002.4 1.6 SW 5.4 1.5 2.4
19:23 9.7 9.7 100 1002.4 2.2 NE 5.4 1.5 2.4
19:24 9.7 9.7 100 1002.5 3.1 SW 5.4 1.5 2.5
19:25 9.7 9.7 100 1002.3 3.1 E 3.8 1.5 2.5
19:26 9.7 9.7 100 1002.4 2.2 NW 3.8 1.5 2.5
19:27 9.7 9.7 100 1002.4 3.1 E 3.8 0.8 2.5
19:28 9.7 9.7 100 1002.4 3.8 SE 3.8 1.5 2.5
19:29 9.7 9.7 100 1002.4 3.8 NNW 3.8 0.8 2.5
19:30 9.8 9.8 100 1002.5 2.2 SE 3.8 1.5 2.6
19:31 9.8 9.8 100 1002.5 2.2 SSE 3.8 1.5 2.7
19:32 9.8 9.8 100 1002.6 3.1 S 3.8 4.5 2.8
19:34 9.8 9.8 100 1002.7 4.5 S 4.5 7.6 3.1
19:35 9.8 9.8 100 1002.6 3.8 SW 4.5 6.8 3.5
19:36 9.9 9.9 100 1002.3 2.2 N 4.5 16.6 4.3
19:37 9.9 9.9 100 1002.6 1.6 W 4.5 18.1 4.4
19:39 9.9 9.9 100 1002.5 4.5 SE 4.5 15.9 4.5
19:40 10.0 10.0 100 1002.4 3.8 SSE 4.5 17.4 4.6
19:41 10.0 10.0 100 1002.3 6.0 SE 6.0 7.6 4.7
19:42 10.0 10.0 100 1002.3 6.0 SE 6.0 3.8 4.7
19:43 10.0 10.0 100 1002.2 6.9 SE 6.9 3.0 4.7
19:44 10.1 10.1 100 1002.3 4.5 SE 6.9 2.3 4.7
19:45 10.1 10.1 100 1002.2 3.8 SW 6.9 0.8 4.7
19:46 10.1 10.1 100 1002.2 6.9 S 6.9 0.8 4.7
19:47 10.2 10.2 100 1002.1 6.0 SE 6.9 0.8 4.8
19:48 10.2 10.2 100 1002.3 9.8 SE 9.8 2.3 4.9
19:49 10.3 10.3 100 1002.2 9.8 SE 9.8 2.3 4.9
19:50 10.3 10.3 100 1002.1 7.6 SE 9.8 3.0 4.9
19:51 10.4 10.4 100 1002.1 9.2 S 9.8 3.0 5.0
19:53 10.5 10.5 100 1002.1 6.9 SW 9.8 3.8 5.2
19:54 10.6 10.6 100 1002.1 6.9 SSE 9.8 4.5 5.2
19:55 10.6 10.6 100 1002.2 6.9 S 9.8 3.8 5.2
19:56 10.7 10.7 100 1001.9 8.3 SSW 9.8 4.5 5.4
19:57 10.7 10.7 100 1002.1 6.9 S 9.8 3.0 5.4
19:58 10.7 10.7 100 1002.1 7.6 S 9.8 2.3 5.4
19:59 10.8 10.8 100 1002.0 7.6 S 9.2 2.3 5.4
20:00 10.8 10.8 100 1002.0 8.3 S 9.2 3.0 5.5
20:01 10.8 10.8 100 1002.0 15.2 S 15.2 2.3 5.5
20:03 10.9 10.9 100 1002.0 15.9 S 16.8 1.5 5.5
20:04 11.0 11.0 100 1002.0 12.1 S 16.8 1.5 5.5
20:12 11.2 11.2 100 1001.8 17.4 S 17.4 0.8 5.7
20:13 11.2 11.2 100 1001.9 17.4 S 17.4 0.8 5.7
20:14 11.3 11.3 100 1001.9 19.7 S 19.7 0.8 5.7
20:15 11.3 11.3 100 1002.0 19.7 SW 19.7 0.8 5.7
20:16 11.3 11.3 100 1001.8 16.8 S 19.7 0.8 5.7
20:17 11.3 11.3 100 1001.8 15.9 S 19.7 0.8 5.7
20:18 11.3 11.3 100 1001.9 16.8 S 19.7 0.8 5.7
20:19 11.3 11.3 100 1002.0 16.8 SE 19.7 0.8 5.7
20:20 11.4 11.4 100 1002.1 19.0 SSE 19.7 0.0 5.7
20:21 11.4 11.4 100 1002.0 16.8 S 19.7 0.8 5.8
20:22 11.4 11.4 100 1002.1 15.2 NE 19.7 0.8 5.8
20:23 11.4 11.4 100 1001.7 18.3 S 19.7 0.8 5.8
20:24 11.4 11.4 100 1002.0 17.4 S 19.7 0.8 5.8
20:25 11.4 11.4 100 1001.9 15.9 SE 19.7 0.8 5.8
20:26 11.4 11.4 100 1001.9 12.1 SW 19.0 0.8 5.9
20:27 11.5 11.5 100 1002.1 13.6 SSE 19.0 0.8 5.9
20:28 11.5 11.5 100 1002.1 16.8 S 19.0 0.8 5.9
20:32 11.5 11.5 100 1001.8 19.7 S 19.7 0.0 5.9
20:33 11.5 11.5 100 1001.9 19.7 SW 19.7 0.0 5.9
20:34 11.5 11.5 100 1001.9 20.6 S 20.6 0.0 5.9
20:35 11.5 11.5 100 1001.9 20.6 SE 20.6 0.0 5.9
20:38 11.6 11.6 100 1002.0 15.9 SW 20.6 0.8 5.9
20:39 11.6 11.6 100 1002.0 21.3 SW 21.3 0.8 5.9
20:40 11.6 11.6 100 1001.9 15.9 SW 21.3 0.8 5.9
20:41 11.6 11.6 100 1002.1 22.8 S 22.8 0.8 5.9
20:42 11.6 11.6 100 1002.0 17.4 S 22.8 0.0 5.9
20:43 11.6 11.6 100 1001.8 17.4 SSE 22.8 0.0 5.9
20:44 11.6 11.6 100 1001.9 16.8 NNW 22.8 0.0 5.9
20:45 11.6 11.6 100 1002.1 16.8 NNW 22.8 0.0 5.9
20:46 11.6 11.6 100 1002.0 19.7 NE 22.8 0.0 5.9
20:47 11.6 11.6 100 1002.1 19.7 SW 22.8 0.0 5.9
20:49 11.6 11.6 100 1001.9 13.6 SSW 22.8 0.0 5.9
20:50 11.6 11.6 100 1001.9 18.3 SW 22.8 0.0 5.9
20:51 11.6 11.6 100 1001.8 16.8 S 22.8 0.0 5.9
20:53 11.6 11.6 100 1002.2 16.8 SW 20.6 0.0 5.9
20:54 11.6 11.6 100 1002.0 13.0 SW 20.6 0.0 5.9
20:55 11.6 11.6 100 1001.8 21.3 S 21.3 0.0 5.9
20:56 11.6 11.6 100 1002.0 17.4 S 21.3 0.0 5.9
20:57 11.6 11.6 100 1001.9 15.2 SW 21.3 0.0 5.9
20:58 11.6 11.6 100 1001.8 16.8 SW 21.3 0.0 5.9
20:59 11.6 11.6 100 1001.9 18.3 S 21.3 0.0 5.9
21:00 11.6 11.6 100 1002.1 15.2 SE 21.3 0.0 5.9
21:01 11.6 11.6 100 1002.0 15.2 SE 21.3 0.0 5.9
21:03 11.6 11.6 100 1001.9 15.2 SE 21.3 0.0 5.9
21:05 11.6 11.6 100 1001.9 15.2 SE 21.3 0.0 5.9
21:06 11.6 11.6 100 1001.7 15.2 N 18.3 0.0 5.9
21:07 11.6 11.6 100 1001.8 15.9 SW 18.3 0.0 5.9
21:08 11.6 11.6 100 1001.8 18.3 SW 18.3 0.0 5.9
21:09 11.6 11.6 100 1001.8 18.3 SW 18.3 0.0 5.9
21:11 11.5 11.5 100 1001.9 16.8 S 18.3 0.0 5.9
21:12 11.5 11.5 100 1001.7 16.8 SW 18.3 0.0 5.9
21:13 11.5 11.5 100 1001.7 13.6 SW 18.3 0.0 5.9
21:14 11.5 11.5 100 1002.0 16.8 S 18.3 0.0 5.9
21:15 11.5 11.5 100 1001.4 12.1 SSW 18.3 0.0 5.9
21:16 11.5 11.5 100 1001.7 13.0 S 18.3 0.0 5.9
21:17 11.5 11.5 100 1001.7 10.7 SW 18.3 0.0 5.9
21:18 11.5 11.5 100 1001.5 14.5 SW 18.3 0.0 5.9
21:20 11.5 11.5 100 1001.3 13.6 S 18.3 0.0 5.9
21:21 11.5 11.5 100 1001.5 14.5 SW 16.8 0.0 5.9
21:22 11.5 11.5 100 1001.4 13.6 SSW 16.8 0.0 5.9
21:23 11.5 11.5 100 1001.3 10.7 SW 16.8 0.0 5.9
21:24 11.5 11.5 100 1001.4 9.8 S 16.8 0.0 5.9
21:25 11.5 11.5 100 1001.3 15.9 SW 15.9 0.0 5.9
21:26 11.5 11.5 100 1001.4 9.8 SW 15.9 0.0 5.9
21:28 11.4 11.4 100 1001.8 13.0 SW 15.9 0.0 5.9
21:29 11.4 11.4 100 1001.6 13.0 SW 15.9 0.0 5.9
21:30 11.4 11.4 100 1001.5 13.0 SW 15.9 0.0 5.9
21:31 11.4 11.4 100 1001.6 10.7 SW 15.9 0.0 5.9
21:32 11.4 11.4 100 1001.7 13.6 WSW 15.9 0.0 5.9
21:34 11.4 11.4 100 1001.6 13.0 S 15.9 0.0 5.9
21:35 11.4 11.4 100 1001.8 13.0 S 15.9 0.0 5.9
21:36 11.4 11.4 100 1002.0 14.5 SW 14.5 0.0 5.9
21:37 11.4 11.4 100 1001.7 12.1 SW 14.5 0.0 5.9
21:38 11.4 11.4 100 1001.8 10.7 SW 14.5 0.0 5.9
21:46 11.4 11.4 100 1001.7 12.1 S 15.9 0.0 5.9
21:47 11.4 11.4 100 1001.8 12.1 SSE 15.9 0.0 5.9
21:48 11.4 11.4 100 1001.9 12.1 SW 15.9 0.0 5.9
21:49 11.4 11.4 100 1001.7 13.0 SW 15.9 0.0 5.9
21:50 11.4 11.4 100 1001.9 12.1 SSW 15.9 0.0 5.9
21:51 11.4 11.4 100 1001.9 13.0 SSW 15.9 0.0 5.9
21:52 11.4 11.4 100 1002.0 13.0 SW 15.9 0.0 5.9
21:53 11.4 11.4 100 1002.0 13.0 SW 15.9 0.0 5.9
21:54 11.4 11.4 100 1001.8 17.4 SSW 17.4 0.0 5.9
21:55 11.4 11.4 100 1002.0 13.0 S 17.4 0.0 5.9
21:56 11.4 11.4 100 1001.9 15.2 S 17.4 0.0 5.9
21:57 11.4 11.4 100 1001.9 11.4 SSW 17.4 0.0 5.9
21:58 11.4 11.4 100 1001.8 13.0 SW 17.4 0.0 5.9
21:59 11.4 11.4 100 1001.9 15.2 W 17.4 0.0 5.9
22:00 11.4 11.4 100 1002.0 11.4 S 17.4 0.0 5.9
22:01 11.4 11.4 100 1002.0 14.5 W 17.4 0.0 5.9
22:03 11.4 11.4 100 1001.9 18.3 SW 19.0 0.8 6.0
22:04 11.4 11.4 100 1001.9 19.0 S 19.0 0.8 6.0
22:05 11.5 11.5 100 1002.1 19.0 SW 19.0 0.8 6.0
22:06 11.5 11.5 100 1002.0 17.4 SW 19.0 0.8 6.0
22:07 11.5 11.5 100 1002.0 19.0 S 19.0 0.8 6.0
22:08 11.5 11.5 100 1002.1 14.5 SW 19.0 0.0 6.0
22:14 11.4 11.4 100 1002.0 14.5 S 19.0 0.0 6.0
22:15 11.4 11.4 100 1002.1 11.4 W 19.0 0.0 6.0
22:16 11.4 11.4 100 1002.3 13.6 S 19.0 0.0 6.0
22:17 11.4 11.4 100 1002.1 15.9 SW 19.0 0.0 6.0
22:18 11.4 11.4 100 1002.1 15.9 S 19.0 0.0 6.0
22:19 11.4 11.4 100 1002.2 17.4 SE 19.0 0.8 6.0
22:22 11.4 11.4 100 1002.2 15.9 SW 17.4 0.8 6.0
22:23 11.4 11.4 100 1002.0 13.6 SW 17.4 0.8 6.0
22:24 11.4 11.4 100 1002.1 17.4 SW 17.4 0.0 6.0
22:26 11.5 11.5 100 1002.0 15.9 SSW 17.4 0.0 6.0
22:27 11.5 11.5 100 1002.2 15.9 SSW 17.4 0.0 6.0
22:28 11.5 11.5 100 1002.0 15.9 SW 19.7 0.0 6.0
22:29 11.5 11.5 100 1002.0 15.9 SW 19.7 0.0 6.0
22:30 11.5 11.5 100 1001.9 15.9 SW 19.7 0.0 6.0
22:31 11.5 11.5 100 1002.0 21.3 SW 21.3 0.0 6.0
22:32 11.5 11.5 100 1002.2 13.0 S 21.3 0.0 6.0
22:33 11.5 11.5 100 1002.0 13.0 SSW 21.3 0.0 6.0
22:34 11.5 11.5 100 1001.7 12.1 SW 21.3 0.0 6.0
22:35 11.5 11.5 100 1002.1 13.0 SE 21.3 0.0 6.0
22:36 11.5 11.5 100 1001.9 16.8 SW 21.3 0.0 6.0
22:37 11.5 11.5 100 1001.9 16.8 SE 21.3 0.0 6.0
22:38 11.5 11.5 100 1001.9 15.2 W 21.3 0.0 6.0
22:39 11.5 11.5 100 1002.1 13.6 S 21.3 0.0 6.0
22:41 11.5 11.5 100 1002.0 13.6 SW 21.3 0.0 6.0
22:42 11.5 11.5 100 1002.1 13.6 SW 19.0 0.0 6.0
22:44 11.5 11.5 100 1002.0 13.0 SW 19.0 0.0 6.1
22:45 11.4 11.4 100 1002.1 15.2 S 19.0 0.8 6.1
22:46 11.4 11.4 100 1002.0 15.2 S 19.0 0.8 6.1
22:47 11.4 11.4 100 1002.1 16.8 SW 19.0 0.8 6.1
22:49 11.4 11.4 100 1002.1 16.8 S 18.3 0.8 6.1
22:50 11.4 11.4 100 1002.1 16.8 S 18.3 0.0 6.1
22:51 11.4 11.4 100 1001.9 14.5 SW 18.3 0.0 6.1
22:52 11.4 11.4 100 1002.2 14.5 S 18.3 0.0 6.1
22:53 11.4 11.4 100 1002.2 14.5 S 18.3 0.0 6.1
22:54 11.4 11.4 100 1002.0 19.0 S 19.0 0.0 6.1
22:55 11.4 11.4 100 1001.9 18.3 SSW 19.0 0.0 6.1
22:56 11.4 11.4 100 1001.9 17.4 S 19.0 0.0 6.1
22:57 11.4 11.4 100 1001.9 14.5 SW 19.0 0.0 6.1
22:59 11.4 11.4 100 1002.0 19.0 SW 19.0 0.0 6.1
23:00 11.4 11.4 100 1002.1 14.5 SW 19.0 0.0 6.1
23:01 11.4 11.4 100 1001.9 14.5 SW 19.0 0.0 6.1
23:09 11.4 11.4 100 1002.2 13.0 WSW 19.0 0.0 6.1
23:10 11.4 11.4 100 1002.0 14.5 SW 16.8 0.0 6.1
23:11 11.4 11.4 100 1002.0 13.0 SW 16.8 0.0 6.1
23:12 11.4 11.4 100 1001.9 10.7 E 16.8 0.0 6.1
23:13 11.4 11.4 100 1002.1 10.7 S 16.8 0.0 6.1
23:14 11.4 11.4 100 1002.0 13.0 SW 16.8 0.0 6.1
23:15 11.4 11.4 100 1001.9 13.6 SSW 16.8 0.0 6.1
23:17 11.4 11.4 100 1002.2 15.2 S 16.8 0.0 6.1
23:18 11.4 11.4 100 1001.9 15.2 SW 16.8 0.0 6.1
23:21 11.4 11.4 100 1002.1 19.0 SE 19.0 0.0 6.1
23:22 11.4 11.4 100 1002.1 13.6 S 19.0 0.0 6.1
23:23 11.4 11.4 100 1002.0 21.3 SSW 21.3 0.0 6.1
23:24 11.4 11.4 100 1001.9 20.6 S 21.3 0.0 6.1
23:26 11.4 11.4 100 1002.1 14.5 S 21.3 0.0 6.1
23:27 11.4 11.4 100 1002.2 15.9 SW 21.3 0.0 6.1
23:28 11.4 11.4 100 1002.2 19.7 S 21.3 0.0 6.1
23:29 11.4 11.4 100 1002.0 19.7 SW 21.3 0.0 6.1
23:30 11.4 11.4 100 1002.1 17.4 S 21.3 0.0 6.1
23:38 11.4 11.4 100 1002.0 20.6 S 20.6 0.0 6.1
23:39 11.4 11.4 100 1002.1 19.7 SW 20.6 0.0 6.1
23:40 11.4 11.4 100 1001.9 19.7 S 20.6 0.0 6.1
23:41 11.4 11.4 100 1001.9 19.7 S 20.6 0.0 6.1
23:42 11.4 11.4 100 1002.1 20.6 SSW 20.6 0.0 6.1
23:43 11.3 11.3 100 1001.9 15.2 SW 20.6 0.0 6.1
23:44 11.3 11.3 100 1001.9 15.2 SSE 20.6 0.0 6.1
23:45 11.3 11.3 100 1001.9 18.3 S 20.6 0.0 6.1
23:46 11.3 11.3 100 1001.8 18.3 S 20.6 0.0 6.1
23:47 11.3 11.3 100 1001.9 16.8 S 20.6 0.0 6.1
23:49 11.3 11.3 100 1001.7 18.3 S 20.6 0.0 6.1
23:52 11.3 11.3 100 1001.7 19.7 S 19.7 0.0 6.1
23:54 11.3 11.3 100 1001.8 13.6 S 19.7 0.0 6.1
23:55 11.3 11.3 100 1001.7 20.6 S 20.6 0.0 6.1
23:56 11.3 11.3 100 1001.7 18.3 SW 20.6 0.0 6.1
23:57 11.3 11.3 100 1001.8 17.4 SSW 20.6 0.0 6.1
23:58 11.3 11.3 100 1001.7 15.2 S 20.6 0.0 6.1
23:59 11.3 11.3 100 1001.7 15.2 S 20.6 0.0 6.1

 

 

UK - WEATHER STATION TOPSITES - UK

Copyright © Carnkie Weather 2009 - 2024.